Simultaneous Nadir Overpasses (SNOs) Predictions

Prediction of SNOs between GOES-16 and TERRA Satellite Orbit:

Table of predicted SNOs for the next 14.0 days since TLE Epoch: 6/1/2024
Index Date Time (GOES-16) GOES-16 Lat,Lon TERRA Lat,Lon Distance(km) Time Diff (sec)
1 06/01/2024 14:51:26 0.05, -75.20 0.23, -76.18 110.10 80
2 06/03/2024 14:36:44 0.05, -75.22 -0.63, -71.99 367.04 80
3 06/04/2024 02:54:09 -0.05, -75.21 -0.38, -76.87 188.17 80
4 06/06/2024 02:36:46 -0.05, -75.23 0.46, -72.68 289.40 80
5 06/06/2024 14:56:40 0.04, -75.24 0.55, -77.52 260.01 80
6 06/08/2024 14:41:58 0.04, -75.26 -0.37, -73.34 218.26 80
7 06/09/2024 03:02:02 -0.03, -75.26 -0.68, -78.21 336.36 80
8 06/11/2024 02:41:59 -0.03, -75.29 0.21, -74.02 143.18 80
9 06/11/2024 15:01:54 0.03, -75.30 0.80, -78.87 405.77 80
10 06/13/2024 14:47:11 0.02, -75.34 -0.11, -74.68 75.06 80
11 06/14/2024 03:07:15 -0.02, -75.35 -0.91, -79.56 478.66 80
